User: anonymous   Login
Location: Keeble Observatory
(37.7625°N, 77.4755°W)
Time: 14:41:01
(UTC-04:00)
Language:

Cosmos 1484 Rocket - Orbit

View from above orbital plane
View from above orbital plane
View from above satellite
View from above satellite

Ground track
Ground track

The orbit data is extracted from the following two-line orbital elements,

1 14208U 83075B   16273.18609924  .00001106  00000-0  70625-4 0  9998
2 14208  97.3516 288.4054 0038441 313.2240  46.5781 15.10094946808112
Epoch (UTC): 29 September 2016 04:27:58
Eccentricity: 0.0038441
inclination: 97.3516°
perigee height: 509 km
apogee height: 562 km
right ascension of ascending node: 288.4054°
argument of perigee: 313.2240°
revolutions per day: 15.10094946
mean anomaly at epoch: 46.5781°
orbit number at epoch: 80811

The dashed part of the orbit path shows where the satellite is in the earth's shadow,  

DLR